STARLINK-11747, 64322

Orbit data source: Space-Track

STARLINK-11747, 64322 is a payload satellite owned by SpaceX/Seattle (US) in LEO that was launched on Tue, 10 Jun 2025 UTC via an FALCON 9 launch vehicle from the Air Force Eastern Test Range (AFETR). Payload-class satellites include a variety of spacecraft equipped with specific instruments for various scientific and technological missions. These include communications satellites like Starlink; space stations such as the ISS; scientific satellites like the Hubble; Earth observation satellites from companies like Planet Labs, Umbra, and HawkEye 360; GPS; miniature CubeSats for education and research; and military/defense satellites.

Loading next visibility...
Identifier
64322, 2025-124F
Orbit
LEO
Country
Flag of USUS
Related business
Manufacturer
SpaceX/Seattle
Mission
Operational Commercial Communications
Bus & Motor
STARLINK V2MD, Unknown motor
Mass
960 kg wet, ~910 kg dry
Launch date (UTC)
2025-06-10 (11 months ago)
Launch vehicle
FALCON 9
Launch site
Air Force Eastern Test Range (AFETR)
Object type
Payload
Rocket body
Debris
Shape & HBR
Box + 2 Pan, 18.1 m
Radar Cross Section
36.964 m², Large (>1 m²)

Expand to show TLE details & history
Last TLE update: 11 hours ago

TLE from 11 hours ago
0 STARLINK-11747
1 64322U 25124F   26119.93797659  .00292489  00000-0  21862-2 0  9990
2 64322  42.9995  80.3737 0001972 231.7596 128.3095 15.71029918 50890
Epoch: 2026-04-29T22:30Z
TLE epoch observation values (Epoch: 2026-04-29T22:30:41.177Z)
Latitude
0.00003°
Longitude
-115.1896°
Altitude
356.547 km
Speed
7.697 km/s
True Right ascension
05h 21m 29s
True Declination
0° 00' 00"
Sunlit
Object was in daylight at epoch
Visualization orbit readout
Latitude
Unknown
Longitude
Unknown
Altitude
Unknown
Speed
Unknown
Apparent Right ascension
Unknown
Apparent Declination
Unknown
Sunlit
N/A
Visualization observer readout
Local Sidereal Time
16:38:15
Azimuth
Unknown
Elevation
Unknown
Doppler factor
Unknown
Orbital elements
Apogee altitude
359.262 km
Perigee altitude
356.606 km
Semi-major axis
6,736.071 km
Eccentricity
0.0002
Inclination
42.9995°
RAAN
80.3737°
Arg. of periapsis
231.7596°
True anomaly
128.32723°
Mean anomaly
128.3095°
Eccentric anomaly
128.31836°
Mean motion
3.92585 °/min
Orbital period
91.7 mins
BSTAR
0.0021862
Loading maneuver chart data...
Computing Atmospheric mass density...
Loading historical data...
Loading historical data...
Loading historical data...
Loading historical data...
Loading historical data...
Loading historical data...
Loading historical data...

Documentation

Showing up to 5 results
|